�v������,,�����i�g�j,�����t���O,�g�[�i�g�j,�����t���O,,�����iMJ�j,�����t���O,�g�[�iMJ�j,�����t���O
2003/1/1,0:00:00,0,0,0,0,,0,0,0,0
2003/1/1,0:15:00,0,0,0.059,0,,0,0,2.2,0
2003/1/1,0:30:00,0,0,0,0,,0,0,0,0
2003/1/1,0:45:00,0,0,0,0,,0,0,0,0
2003/1/1,1:00:00,0,0,0.06,0,,0,0,2.2,0
2003/1/1,1:15:00,0,0,0,0,,0,0,0,0
2003/1/1,1:30:00,0,0,0.061,0,,0,0,2.2,0
2003/1/1,1:45:00,0,0,0,0,,0,0,0,0
2003/1/1,2:00:00,0,0,0,0,,0,0,0,0
2003/1/1,2:15:00,0,0,0.059,0,,0,0,2.2,0
2003/1/1,2:30:00,0,0,0,0,,0,0,0,0
2003/1/1,2:45:00,0,0,0.06,0,,0,0,2.1,0
2003/1/1,3:00:00,0,0,0,0,,0,0,0,0
2003/1/1,3:15:00,0,0,0.06,0,,0,0,2.2,0
2003/1/1,3:30:00,0,0,0,0,,0,0,0,0
2003/1/1,3:45:00,0,0,0,0,,0,0,0,0
2003/1/1,4:00:00,0,0,0.058,0,,0,0,2.1,0
2003/1/1,4:15:00,0,0,0,0,,0,0,0,0
2003/1/1,4:30:00,0,0,0.061,0,,0,0,2.2,0
2003/1/1,4:45:00,0,0,0,0,,0,0,0,0
2003/1/1,5:00:00,0,0,0.06,0,,0,0,2.2,0
2003/1/1,5:15:00,0,0,0,0,,0,0,0,0
2003/1/1,5:30:00,0,0,0.061,0,,0,0,2.2,0
2003/1/1,5:45:00,0,0,0,0,,0,0,0,0
2003/1/1,6:00:00,0,0,0.06,0,,0,0,2.2,0
2003/1/1,6:15:00,0,0,0.008,0,,0,0,0.3,0
2003/1/1,6:30:00,0,0,0.053,0,,0,0,1.9,0
2003/1/1,6:45:00,0,0,0.06,0,,0,0,2.2,0
2003/1/1,7:00:00,0,0,0,0,,0,0,0,0
2003/1/1,7:15:00,0,0,0.06,0,,0,0,2.3,0
2003/1/1,7:30:00,0,0,0,0,,0,0,0,0
2003/1/1,7:45:00,0,0,0.062,0,,0,0,2.3,0
2003/1/1,8:00:00,0,0,0,0,,0,0,0,0
2003/1/1,8:15:00,0,0,0.058,0,,0,0,2.1,0
2003/1/1,8:30:00,0,0,0.058,0,,0,0,2.1,0
2003/1/1,8:45:00,0,0,0,0,,0,0,0,0
2003/1/1,9:00:00,0,0,0.059,0,,0,0,2.2,0
2003/1/1,9:15:00,0,0,0,0,,0,0,0,0
2003/1/1,9:30:00,0,0,0.06,0,,0,0,2.2,0
2003/1/1,9:45:00,0,0,0,0,,0,0,0,0
2003/1/1,10:00:00,0,0,0.057,0,,0,0,2.1,0
2003/1/1,10:15:00,0,0,0.059,0,,0,0,2.2,0
2003/1/1,10:30:00,0,0,0,0,,0,0,0,0
2003/1/1,10:45:00,0,0,0.06,0,,0,0,2.2,0
2003/1/1,11:00:00,0,0,0,0,,0,0,0,0
2003/1/1,11:15:00,0,0,0.059,0,,0,0,2.2,0
2003/1/1,11:30:00,0,0,0,0,,0,0,0,0
2003/1/1,11:45:00,0,0,0.059,0,,0,0,2.2,0
2003/1/1,12:00:00,0,0,0.023,0,,0,0,0.9,0
2003/1/1,12:15:00,0,0,0.036,0,,0,0,1.3,0
2003/1/1,12:30:00,0,0,0.06,0,,0,0,2.2,0
2003/1/1,12:45:00,0,0,0,0,,0,0,0,0
2003/1/1,13:00:00,0,0,0.059,0,,0,0,2.2,0
2003/1/1,13:15:00,0,0,0,0,,0,0,0,0
2003/1/1,13:30:00,0,0,0.059,0,,0,0,2.2,0
2003/1/1,13:45:00,0,0,0.008,0,,0,0,0.3,0
2003/1/1,14:00:00,0,0,0.054,0,,0,0,2,0
2003/1/1,14:15:00,0,0,0.06,0,,0,0,2.2,0
2003/1/1,14:30:00,0,0,0,0,,0,0,0,0
2003/1/1,14:45:00,0,0,0.061,0,,0,0,2.2,0
2003/1/1,15:00:00,0,0,0,0,,0,0,0,0
2003/1/1,15:15:00,0,0,0.059,0,,0,0,2.2,0
2003/1/1,15:30:00,0,0,0.059,0,,0,0,2.2,0
2003/1/1,15:45:00,0,0,0,0,,0,0,0,0
2003/1/1,16:00:00,0,0,0.061,0,,0,0,2.2,0
2003/1/1,16:15:00,0,0,0.061,0,,0,0,2.3,0
2003/1/1,16:30:00,0,0,0,0,,0,0,0,0
2003/1/1,16:45:00,0,0,0.061,0,,0,0,2.2,0
2003/1/1,17:00:00,0,0,0.059,0,,0,0,2.2,0
2003/1/1,17:15:00,0,0,0,0,,0,0,0,0
2003/1/1,17:30:00,0,0,0.06,0,,0,0,2.2,0
2003/1/1,17:45:00,0,0,0.059,0,,0,0,2.2,0
2003/1/1,18:00:00,0,0,0,0,,0,0,0,0
2003/1/1,18:15:00,0,0,0.058,0,,0,0,2.2,0
2003/1/1,18:30:00,0,0,0.06,0,,0,0,2.2,0
2003/1/1,18:45:00,0,0,0,0,,0,0,0,0
2003/1/1,19:00:00,0,0,0.061,0,,0,0,2.2,0
2003/1/1,19:15:00,0,0,0.06,0,,0,0,2.2,0
2003/1/1,19:30:00,0,0,0.059,0,,0,0,2.2,0
2003/1/1,19:45:00,0,0,0,0,,0,0,0,0
2003/1/1,20:00:00,0,0,0.062,0,,0,0,2.3,0
2003/1/1,20:15:00,0,0,0.061,0,,0,0,2.2,0
2003/1/1,20:30:00,0,0,0.011,0,,0,0,0.4,0
2003/1/1,20:45:00,0,0,0.048,0,,0,0,1.8,0
2003/1/1,21:00:00,0,0,0.06,0,,0,0,2.2,0
2003/1/1,21:15:00,0,0,0.061,0,,0,0,2.3,0
2003/1/1,21:30:00,0,0,0.06,0,,0,0,2.2,0
2003/1/1,21:45:00,0,0,0,0,,0,0,0,0
2003/1/1,22:00:00,0,0,0.061,0,,0,0,2.2,0
2003/1/1,22:15:00,0,0,0.061,0,,0,0,2.2,0
2003/1/1,22:30:00,0,0,0.061,0,,0,0,2.2,0
2003/1/1,22:45:00,0,0,0,0,,0,0,0,0
2003/1/1,23:00:00,0,0,0.061,0,,0,0,2.2,0
2003/1/1,23:15:00,0,0,0.06,0,,0,0,2.2,0
2003/1/1,23:30:00,0,0,0.061,0,,0,0,2.2,0
2003/1/1,23:45:00,0,0,0.06,0,,0,0,2.2,0
2003/1/2,0:00:00,0,0,0,0,,0,0,0,0
2003/1/2,0:15:00,0,0,0.06,0,,0,0,2.2,0
2003/1/2,0:30:00,0,0,0.063,0,,0,0,2.3,0
2003/1/2,0:45:00,0,0,0.06,0,,0,0,2.2,0
2003/1/2,1:00:00,0,0,0.061,0,,0,0,2.3,0
2003/1/2,1:15:00,0,0,0,0,,0,0,0,0
2003/1/2,1:30:00,0,0,0.061,0,,0,0,2.2,0
2003/1/2,1:45:00,0,0,0.061,0,,0,0,2.2,0
2003/1/2,2:00:00,0,0,0.059,0,,0,0,2.2,0
2003/1/2,2:15:00,0,0,0.06,0,,0,0,2.2,0
2003/1/2,2:30:00,0,0,0.06,0,,0,0,2.2,0
2003/1/2,2:45:00,0,0,0.059,0,,0,0,2.2,0
2003/1/2,3:00:00,0,0,0,0,,0,0,0,0
2003/1/2,3:15:00,0,0,0.06,0,,0,0,2.2,0
2003/1/2,3:30:00,0,0,0.057,0,,0,0,2.1,0
2003/1/2,3:45:00,0,0,0.059,0,,0,0,2.2,0
2003/1/2,4:00:00,0,0,0.061,0,,0,0,2.2,0
2003/1/2,4:15:00,0,0,0.061,0,,0,0,2.2,0
2003/1/2,4:30:00,0,0,0.061,0,,0,0,2.2,0
2003/1/2,4:45:00,0,0,0.06,0,,0,0,2.2,0
2003/1/2,5:00:00,0,0,0.061,0,,0,0,2.2,0
2003/1/2,5:15:00,0,0,0.058,0,,0,0,2.1,0
2003/1/2,5:30:00,0,0,0.001,0,,0,0,0,0
2003/1/2,5:45:00,0,0,0.061,0,,0,0,2.2,0
2003/1/2,6:00:00,0,0,0.061,0,,0,0,2.2,0
2003/1/2,6:15:00,0,0,0.06,0,,0,0,2.2,0
2003/1/2,6:30:00,0,0,0.062,0,,0,0,2.3,0
2003/1/2,6:45:00,0,0,0.059,0,,0,0,2.2,0
2003/1/2,7:00:00,0,0,0.063,0,,0,0,2.3,0
2003/1/2,7:15:00,0,0,0.06,0,,0,0,2.2,0
2003/1/2,7:30:00,0,0,0.058,0,,0,0,2.1,0
2003/1/2,7:45:00,0,0,0.061,0,,0,0,2.3,0
2003/1/2,8:00:00,0,0,0.061,0,,0,0,2.3,0
2003/1/2,8:15:00,0,0,0.06,0,,0,0,2.2,0
2003/1/2,8:30:00,0,0,0.059,0,,0,0,2.2,0
2003/1/2,8:45:00,0,0,0.06,0,,0,0,2.2,0
2003/1/2,9:00:00,0,0,0.059,0,,0,0,2.2,0
2003/1/2,9:15:00,0,0,0.061,0,,0,0,2.2,0
2003/1/2,9:30:00,0,0,0.06,0,,0,0,2.2,0
2003/1/2,9:45:00,0,0,0.06,0,,0,0,2.2,0
2003/1/2,10:00:00,0,0,0.053,0,,0,0,1.9,0
2003/1/2,10:15:00,0,0,0.009,0,,0,0,0.3,0
2003/1/2,10:30:00,0,0,0.058,0,,0,0,2.1,0
2003/1/2,10:45:00,0,0,0.059,0,,0,0,2.2,0
2003/1/2,11:00:00,0,0,0.061,0,,0,0,2.2,0
2003/1/2,11:15:00,0,0,0.058,0,,0,0,2.1,0
2003/1/2,11:30:00,0,0,0.059,0,,0,0,2.1,0
2003/1/2,11:45:00,0,0,0.06,0,,0,0,2.2,0
2003/1/2,12:00:00,0,0,0.061,0,,0,0,2.2,0
2003/1/2,12:15:00,0,0,0.059,0,,0,0,2.1,0
2003/1/2,12:30:00,0,0,0.06,0,,0,0,2.2,0
2003/1/2,12:45:00,0,0,0.061,0,,0,0,2.2,0
2003/1/2,13:00:00,0,0,0.034,0,,0,0,1.3,0
2003/1/2,13:15:00,0,0,0.027,0,,0,0,1,0
2003/1/2,13:30:00,0,0,0.062,0,,0,0,2.3,0
2003/1/2,13:45:00,0,0,0.061,0,,0,0,2.2,0
2003/1/2,14:00:00,0,0,0.059,0,,0,0,2.2,0
2003/1/2,14:15:00,0,0,0.059,0,,0,0,2.2,0
2003/1/2,14:30:00,0,0,0.06,0,,0,0,2.2,0
2003/1/2,14:45:00,0,0,0.06,0,,0,0,2.2,0
2003/1/2,15:00:00,0,0,0.048,0,,0,0,1.8,0
2003/1/2,15:15:00,0,0,0.011,0,,0,0,0.4,0
2003/1/2,15:30:00,0,0,0.06,0,,0,0,2.2,0
2003/1/2,15:45:00,0,0,0.061,0,,0,0,2.2,0
2003/1/2,16:00:00,0,0,0.059,0,,0,0,2.2,0
2003/1/2,16:15:00,0,0,0.059,0,,0,0,2.2,0
2003/1/2,16:30:00,0,0,0.063,0,,0,0,2.3,0
2003/1/2,16:45:00,0,0,0.059,0,,0,0,2.2,0
2003/1/2,17:00:00,0,0,0.06,0,,0,0,2.2,0
2003/1/2,17:15:00,0,0,0.023,0,,0,0,0.8,0
2003/1/2,17:30:00,0,0,0.037,0,,0,0,1.4,0
2003/1/2,17:45:00,0,0,0.06,0,,0,0,2.2,0
2003/1/2,18:00:00,0,0,0.059,0,,0,0,2.2,0
2003/1/2,18:15:00,0,0,0.062,0,,0,0,2.3,0
2003/1/2,18:30:00,0,0,0.06,0,,0,0,2.2,0
2003/1/2,18:45:00,0,0,0.059,0,,0,0,2.2,0
2003/1/2,19:00:00,0,0,0.061,0,,0,0,2.2,0
2003/1/2,19:15:00,0,0,0.06,0,,0,0,2.2,0
2003/1/2,19:30:00,0,0,0.061,0,,0,0,2.2,0
2003/1/2,19:45:00,0,0,0.061,0,,0,0,2.2,0
2003/1/2,20:00:00,0,0,0.06,0,,0,0,2.2,0
2003/1/2,20:15:00,0,0,0.061,0,,0,0,2.2,0
2003/1/2,20:30:00,0,0,0.006,0,,0,0,0.2,0
2003/1/2,20:45:00,0,0,0.055,0,,0,0,2,0
2003/1/2,21:00:00,0,0,0.061,0,,0,0,2.2,0
2003/1/2,21:15:00,0,0,0.06,0,,0,0,2.2,0
2003/1/2,21:30:00,0,0,0.06,0,,0,0,2.2,0
2003/1/2,21:45:00,0,0,0.061,0,,0,0,2.2,0
2003/1/2,22:00:00,0,0,0.06,0,,0,0,2.2,0
2003/1/2,22:15:00,0,0,0.06,0,,0,0,2.2,0
2003/1/2,22:30:00,0,0,0.058,0,,0,0,2.1,0
2003/1/2,22:45:00,0,0,0.06,0,,0,0,2.2,0
2003/1/2,23:00:00,0,0,0.06,0,,0,0,2.2,0
2003/1/2,23:15:00,0,0,0.06,0,,0,0,2.2,0
2003/1/2,23:30:00,0,0,0.06,0,,0,0,2.2,0
2003/1/2,23:45:00,0,0,0.058,0,,0,0,2.1,0
2003/1/3,0:00:00,0,0,0.06,0,,0,0,2.2,0
2003/1/3,0:15:00,0,0,0.06,0,,0,0,2.2,0
2003/1/3,0:30:00,0,0,0.061,0,,0,0,2.2,0
2003/1/3,0:45:00,0,0,0.06,0,,0,0,2.3,0
2003/1/3,1:00:00,0,0,0.062,0,,0,0,2.3,0
2003/1/3,1:15:00,0,0,0.059,0,,0,0,2.2,0
2003/1/3,1:30:00,0,0,0.059,0,,0,0,2.2,0
2003/1/3,1:45:00,0,0,0.058,0,,0,0,2.1,0
2003/1/3,2:00:00,0,0,0.06,0,,0,0,2.2,0
2003/1/3,2:15:00,0,0,0.06,0,,0,0,2.2,0
2003/1/3,2:30:00,0,0,0.06,0,,0,0,2.2,0
2003/1/3,2:45:00,0,0,0.058,0,,0,0,2.1,0
2003/1/3,3:00:00,0,0,0.06,0,,0,0,2.2,0
2003/1/3,3:15:00,0,0,0.062,0,,0,0,2.3,0
2003/1/3,3:30:00,0,0,0.06,0,,0,0,2.2,0
2003/1/3,3:45:00,0,0,0.061,0,,0,0,2.2,0
2003/1/3,4:00:00,0,0,0.062,0,,0,0,2.3,0
2003/1/3,4:15:00,0,0,0.063,0,,0,0,2.3,0
2003/1/3,4:30:00,0,0,0.06,0,,0,0,2.2,0
2003/1/3,4:45:00,0,0,0.06,0,,0,0,2.2,0
2003/1/3,5:00:00,0,0,0.06,0,,0,0,2.2,0
2003/1/3,5:15:00,0,0,0.06,0,,0,0,2.2,0
2003/1/3,5:30:00,0,0,0.061,0,,0,0,2.2,0
2003/1/3,5:45:00,0,0,0.061,0,,0,0,2.2,0
2003/1/3,6:00:00,0,0,0.063,0,,0,0,2.3,0
2003/1/3,6:15:00,0,0,0.059,0,,0,0,2.2,0
2003/1/3,6:30:00,0,0,0.061,0,,0,0,2.2,0
2003/1/3,6:45:00,0,0,0.06,0,,0,0,2.2,0
2003/1/3,7:00:00,0,0,0.06,0,,0,0,2.2,0
2003/1/3,7:15:00,0,0,0.06,0,,0,0,2.2,0
2003/1/3,7:30:00,0,0,0.058,0,,0,0,2.1,0
2003/1/3,7:45:00,0,0,0.058,0,,0,0,2.1,0
2003/1/3,8:00:00,0,0,0.059,0,,0,0,2.2,0
2003/1/3,8:15:00,0,0,0.084,0,,0,0,3,0
2003/1/3,8:30:00,0,0,0.098,0,,0,0,3.6,0
2003/1/3,8:45:00,0,0,0.064,0,,0,0,2.3,0
2003/1/3,9:00:00,0,0,0.059,0,,0,0,2.2,0
2003/1/3,9:15:00,0,0,0.061,0,,0,0,2.3,0
2003/1/3,9:30:00,0,0,0.063,0,,0,0,2.3,0
2003/1/3,9:45:00,0,0,0.064,0,,0,0,2.3,0
2003/1/3,10:00:00,0,0,0.061,0,,0,0,2.2,0
2003/1/3,10:15:00,0,0,0.06,0,,0,0,2.2,0
2003/1/3,10:30:00,0,0,0.061,0,,0,0,2.2,0
2003/1/3,10:45:00,0,0,0.06,0,,0,0,2.2,0
2003/1/3,11:00:00,0,0,0.059,0,,0,0,2.2,0
2003/1/3,11:15:00,0,0,0.061,0,,0,0,2.2,0
2003/1/3,11:30:00,0,0,0.061,0,,0,0,2.2,0
2003/1/3,11:45:00,0,0,0.059,0,,0,0,2.2,0
2003/1/3,12:00:00,0,0,0.06,0,,0,0,2.2,0
2003/1/3,12:15:00,0,0,0.061,0,,0,0,2.3,0
2003/1/3,12:30:00,0,0,0.06,0,,0,0,2.2,0
2003/1/3,12:45:00,0,0,0.058,0,,0,0,2.1,0
2003/1/3,13:00:00,0,0,0.061,0,,0,0,2.2,0
2003/1/3,13:15:00,0,0,0.062,0,,0,0,2.3,0
2003/1/3,13:30:00,0,0,0.059,0,,0,0,2.2,0
2003/1/3,13:45:00,0,0,0.06,0,,0,0,2.2,0
2003/1/3,14:00:00,0,0,0.059,0,,0,0,2.2,0
2003/1/3,14:15:00,0,0,0.06,0,,0,0,2.2,0
2003/1/3,14:30:00,0,0,0.061,0,,0,0,2.2,0
2003/1/3,14:45:00,0,0,0.01,0,,0,0,0.4,0
2003/1/3,15:00:00,0,0,0.05,0,,0,0,1.8,0
2003/1/3,15:15:00,0,0,0.061,0,,0,0,2.2,0
2003/1/3,15:30:00,0,0,0.059,0,,0,0,2.2,0
2003/1/3,15:45:00,0,0,0.059,0,,0,0,2.2,0
2003/1/3,16:00:00,0,0,0.06,0,,0,0,2.2,0
2003/1/3,16:15:00,0,0,0.061,0,,0,0,2.2,0
2003/1/3,16:30:00,0,0,0.062,0,,0,0,2.3,0
2003/1/3,16:45:00,0,0,0.059,0,,0,0,2.2,0
2003/1/3,17:00:00,0,0,0.061,0,,0,0,2.2,0
2003/1/3,17:15:00,0,0,0.36,0,,0,0,13.2,0
2003/1/3,17:30:00,0,0,0.978,0,,0,0,35.9,0
2003/1/3,17:45:00,0,0,0.668,0,,0,0,24.5,0
2003/1/3,18:00:00,0.014,0,0.63,0,,0.5,0,23.2,0
2003/1/3,18:15:00,0,0,0.567,0,,0,0,20.9,0
2003/1/3,18:30:00,0.358,0,0.509,0,,13.2,0,18.7,0
2003/1/3,18:45:00,0.898,0,0.54,0,,32.9,0,19.8,0
2003/1/3,19:00:00,0.014,0,0.517,0,,0.5,0,18.9,0
2003/1/3,19:15:00,0.015,0,0.484,0,,0.5,0,17.8,0
2003/1/3,19:30:00,0,0,0.542,0,,0,0,20,0
2003/1/3,19:45:00,0,0,0.503,0,,0,0,18.5,0
2003/1/3,20:00:00,0,0,0.491,0,,0,0,18,0
2003/1/3,20:15:00,0.187,0,0.521,0,,6.9,0,19.1,0
2003/1/3,20:30:00,0.237,0,0.436,0,,8.7,0,16,0
2003/1/3,20:45:00,0.375,0,0.511,0,,13.7,0,18.7,0
2003/1/3,21:00:00,0.148,0,0.431,0,,5.4,0,15.8,0
2003/1/3,21:15:00,0.398,0,0.521,0,,14.6,0,19.1,0
2003/1/3,21:30:00,0.191,0,0.433,0,,7,0,15.9,0
2003/1/3,21:45:00,0,0,0.501,0,,0,0,18.4,0
2003/1/3,22:00:00,0,0,0.418,0,,0,0,15.3,0
2003/1/3,22:15:00,0,0,0.49,0,,0,0,18,0
2003/1/3,22:30:00,0.026,0,0.412,0,,1,0,15.1,0
2003/1/3,22:45:00,0.001,0,0.468,0,,0,0,17.2,0
2003/1/3,23:00:00,0,0,0.421,0,,0,0,15.4,0
2003/1/3,23:15:00,0.013,0,0.447,0,,0.5,0,16.3,0
2003/1/3,23:30:00,0,0,0.434,0,,0,0,15.9,0
2003/1/3,23:45:00,0.025,0,0.424,0,,0.9,0,15.6,0
2003/1/4,0:00:00,0,0,0.449,0,,0,0,16.4,0
2003/1/4,0:15:00,0,0,0.406,0,,0,0,14.9,0
2003/1/4,0:30:00,0.013,0,0.453,0,,0.5,0,16.7,0
2003/1/4,0:45:00,0,0,0.381,0,,0,0,14.1,0
2003/1/4,1:00:00,0,0,0.438,0,,0,0,16.1,0
2003/1/4,1:15:00,0,0,0.075,0,,0,0,2.7,0
2003/1/4,1:30:00,0,0,0,0,,0,0,0,0
2003/1/4,1:45:00,0,0,0,0,,0,0,0,0
2003/1/4,2:00:00,0,0,0,0,,0,0,0,0
2003/1/4,2:15:00,0,0,0,0,,0,0,0,0
2003/1/4,2:30:00,0,0,0.06,0,,0,0,2.2,0
2003/1/4,2:45:00,0,0,0,0,,0,0,0,0
2003/1/4,3:00:00,0,0,0.059,0,,0,0,2.2,0
2003/1/4,3:15:00,0,0,0.059,0,,0,0,2.2,0
2003/1/4,3:30:00,0,0,0.061,0,,0,0,2.2,0
2003/1/4,3:45:00,0,0,0.059,0,,0,0,2.2,0
2003/1/4,4:00:00,0,0,0.057,0,,0,0,2.1,0
2003/1/4,4:15:00,0,0,0.059,0,,0,0,2.2,0
2003/1/4,4:30:00,0,0,0.059,0,,0,0,2.2,0
2003/1/4,4:45:00,0,0,0.06,0,,0,0,2.2,0
2003/1/4,5:00:00,0,0,0.061,0,,0,0,2.2,0
2003/1/4,5:15:00,0,0,0.06,0,,0,0,2.2,0
2003/1/4,5:30:00,0,0,0.059,0,,0,0,2.2,0
2003/1/4,5:45:00,0,0,0.059,0,,0,0,2.2,0
2003/1/4,6:00:00,0,0,0.118,0,,0,0,4.3,0
2003/1/4,6:15:00,0,0,0.06,0,,0,0,2.2,0
2003/1/4,6:30:00,0,0,0.06,0,,0,0,2.2,0
2003/1/4,6:45:00,0,0,0.06,0,,0,0,2.2,0
2003/1/4,7:00:00,0,0,0.062,0,,0,0,2.3,0
2003/1/4,7:15:00,0,0,0.059,0,,0,0,2.2,0
2003/1/4,7:30:00,0,0,0.122,0,,0,0,4.5,0
2003/1/4,7:45:00,0,0,0.061,0,,0,0,2.2,0
2003/1/4,8:00:00,0,0,0.358,0,,0,0,13.2,0
2003/1/4,8:15:00,0,0,0.492,0,,0,0,18.1,0
2003/1/4,8:30:00,0,0,0.313,0,,0,0,11.5,0
2003/1/4,8:45:00,0,0,0.307,0,,0,0,11.2,0
2003/1/4,9:00:00,0,0,0.307,0,,0,0,11.3,0
2003/1/4,9:15:00,0.027,0,0.423,0,,1,0,15.5,0
2003/1/4,9:30:00,0.113,0,0.448,0,,4.1,0,16.5,0
2003/1/4,9:45:00,0.115,0,0.381,0,,4.3,0,14,0
2003/1/4,10:00:00,0,0,0.392,0,,0,0,14.4,0
2003/1/4,10:15:00,0.001,0,0.363,0,,0,0,13.3,0
2003/1/4,10:30:00,0,0,0.376,0,,0,0,13.9,0
2003/1/4,10:45:00,0,0,0.369,0,,0,0,13.6,0
2003/1/4,11:00:00,0,0,0.347,0,,0,0,12.7,0
2003/1/4,11:15:00,0.129,0,0.335,0,,4.7,0,12.4,0
2003/1/4,11:30:00,0.082,0,0.318,0,,3,0,11.7,0
2003/1/4,11:45:00,0.014,0,0.312,0,,0.5,0,11.4,0
2003/1/4,12:00:00,0.001,0,0.267,0,,0,0,9.8,0
2003/1/4,12:15:00,0.112,0,0.06,0,,4.1,0,2.2,0
2003/1/4,12:30:00,0.067,0,0.185,0,,2.5,0,6.7,0
2003/1/4,12:45:00,0.116,0,0.19,0,,4.2,0,7,0
2003/1/4,13:00:00,0.085,0,0.187,0,,3.1,0,6.9,0
2003/1/4,13:15:00,0.027,0,0.193,0,,1,0,7,0
2003/1/4,13:30:00,0.001,0,0.187,0,,0,0,6.8,0
2003/1/4,13:45:00,0,0,0.19,0,,0,0,7.1,0
2003/1/4,14:00:00,0,0,0.226,0,,0,0,8.3,0
2003/1/4,14:15:00,0,0,0.215,0,,0,0,7.8,0
2003/1/4,14:30:00,0,0,0.188,0,,0,0,7,0
2003/1/4,14:45:00,0,0,0.189,0,,0,0,7,0
2003/1/4,15:00:00,0,0,0.186,0,,0,0,6.9,0
2003/1/4,15:15:00,0,0,0.192,0,,0,0,6.9,0
2003/1/4,15:30:00,0,0,0.19,0,,0,0,7,0
2003/1/4,15:45:00,0,0,0.189,0,,0,0,6.9,0
2003/1/4,16:00:00,0,0,0.21,0,,0,0,7.7,0
2003/1/4,16:15:00,0,0,0.231,0,,0,0,8.5,0
2003/1/4,16:30:00,0,0,0.191,0,,0,0,7,0
2003/1/4,16:45:00,0,0,0.191,0,,0,0,7,0
2003/1/4,17:00:00,0,0,0.19,0,,0,0,6.9,0
2003/1/4,17:15:00,0,0,0.193,0,,0,0,7.1,0
2003/1/4,17:30:00,0,0,0.222,0,,0,0,8.2,0
2003/1/4,17:45:00,0,0,0.216,0,,0,0,7.9,0
2003/1/4,18:00:00,0,0,0.188,0,,0,0,6.9,0
2003/1/4,18:15:00,0,0,0.184,0,,0,0,6.8,0
2003/1/4,18:30:00,0,0,0.209,0,,0,0,7.7,0
2003/1/4,18:45:00,0.014,0,0.233,0,,0.5,0,8.5,0
2003/1/4,19:00:00,0,0,0.186,0,,0,0,6.9,0
2003/1/4,19:15:00,0,0,0.193,0,,0,0,7,0
2003/1/4,19:30:00,0,0,0.207,0,,0,0,7.6,0
2003/1/4,19:45:00,0,0,0.235,0,,0,0,8.7,0
2003/1/4,20:00:00,0.124,0,0.188,0,,4.6,0,6.9,0
2003/1/4,20:15:00,0,0,0.187,0,,0,0,6.9,0
2003/1/4,20:30:00,0,0,0.211,0,,0,0,7.7,0
2003/1/4,20:45:00,0,0,0.208,0,,0,0,7.7,0
2003/1/4,21:00:00,0,0,0.215,0,,0,0,7.9,0
2003/1/4,21:15:00,0.296,0,0.194,0,,11,0,7.1,0
2003/1/4,21:30:00,0.24,0,0.19,0,,8.8,0,7,0
2003/1/4,21:45:00,0.053,0,0.188,0,,1.9,0,7,0
2003/1/4,22:00:00,0.343,0,0.191,0,,12.6,0,7,0
2003/1/4,22:15:00,0.566,0,0.205,0,,20.8,0,7.6,0
2003/1/4,22:30:00,0,0,0.211,0,,0,0,7.8,0
2003/1/4,22:45:00,0,0,0.081,0,,0,0,3,0
2003/1/4,23:00:00,0,0,0,0,,0,0,0,0
2003/1/4,23:15:00,0,0,0,0,,0,0,0,0
2003/1/4,23:30:00,0,0,0,0,,0,0,0,0
2003/1/4,23:45:00,0,0,0,0,,0,0,0,0
2003/1/5,0:00:00,0,0,0,0,,0,0,0,0
2003/1/5,0:15:00,0,0,0,0,,0,0,0,0
2003/1/5,0:30:00,0,0,0,0,,0,0,0,0
2003/1/5,0:45:00,0,0,0,0,,0,0,0,0
2003/1/5,1:00:00,0,0,0,0,,0,0,0,0
2003/1/5,1:15:00,0,0,0,0,,0,0,0,0
2003/1/5,1:30:00,0,0,0,0,,0,0,0,0
2003/1/5,1:45:00,0,0,0,0,,0,0,0,0
2003/1/5,2:00:00,0,0,0,0,,0,0,0,0
2003/1/5,2:15:00,0,0,0,0,,0,0,0,0
2003/1/5,2:30:00,0,0,0,0,,0,0,0,0
2003/1/5,2:45:00,0,0,0,0,,0,0,0,0
2003/1/5,3:00:00,0,0,0,0,,0,0,0,0
2003/1/5,3:15:00,0,0,0,0,,0,0,0,0
2003/1/5,3:30:00,0,0,0,0,,0,0,0,0
2003/1/5,3:45:00,0,0,0,0,,0,0,0,0
2003/1/5,4:00:00,0,0,0,0,,0,0,0,0
2003/1/5,4:15:00,0,0,0,0,,0,0,0,0
2003/1/5,4:30:00,0,0,0,0,,0,0,0,0
2003/1/5,4:45:00,0,0,0,0,,0,0,0,0
2003/1/5,5:00:00,0,0,0,0,,0,0,0,0
2003/1/5,5:15:00,0,0,0.059,0,,0,0,2.2,0
2003/1/5,5:30:00,0,0,0,0,,0,0,0,0
2003/1/5,5:45:00,0,0,0,0,,0,0,0,0
2003/1/5,6:00:00,0,0,0,0,,0,0,0,0
2003/1/5,6:15:00,0,0,0,0,,0,0,0,0
2003/1/5,6:30:00,0,0,0.059,0,,0,0,2.2,0
2003/1/5,6:45:00,0,0,0,0,,0,0,0,0
2003/1/5,7:00:00,0,0,0,0,,0,0,0,0
2003/1/5,7:15:00,0,0,0.059,0,,0,0,2.2,0
2003/1/5,7:30:00,0,0,0.421,0,,0,0,15.5,0
2003/1/5,7:45:00,0,0,0.502,0,,0,0,18.4,0
2003/1/5,8:00:00,0,0,0.344,0,,0,0,12.6,0
2003/1/5,8:15:00,0.18,0,0.312,0,,6.6,0,11.5,0
2003/1/5,8:30:00,0.123,0,0.308,0,,4.5,0,11.3,0
2003/1/5,8:45:00,0,0,0.304,0,,0,0,11.2,0
2003/1/5,9:00:00,0,0,0.313,0,,0,0,11.6,0
2003/1/5,9:15:00,0.013,0,0.298,0,,0.5,0,11,0
2003/1/5,9:30:00,0.013,0,0.279,0,,0.5,0,10.2,0
2003/1/5,9:45:00,0,0,0.259,0,,0,0,9.5,0
2003/1/5,10:00:00,0,0,0.254,0,,0,0,9.3,0
2003/1/5,10:15:00,0,0,0.265,0,,0,0,9.7,0
2003/1/5,10:30:00,0,0,0.259,0,,0,0,9.5,0
2003/1/5,10:45:00,0.061,0,0.262,0,,2.2,0,9.6,0
2003/1/5,11:00:00,0,0,0.266,0,,0,0,9.8,0
2003/1/5,11:15:00,0,0,0.265,0,,0,0,9.7,0
2003/1/5,11:30:00,0,0,0.26,0,,0,0,9.5,0
2003/1/5,11:45:00,0,0,0.263,0,,0,0,9.6,0
2003/1/5,12:00:00,0,0,0.259,0,,0,0,9.5,0
2003/1/5,12:15:00,0,0,0.304,0,,0,0,11.2,0
2003/1/5,12:30:00,0,0,0.272,0,,0,0,10,0
2003/1/5,12:45:00,0,0,0.259,0,,0,0,9.5,0
2003/1/5,13:00:00,0,0,0.256,0,,0,0,9.4,0
2003/1/5,13:15:00,0.013,0,0.195,0,,0.4,0,7.2,0
2003/1/5,13:30:00,0,0,0.225,0,,0,0,8.2,0
2003/1/5,13:45:00,0,0,0.236,0,,0,0,8.6,0
2003/1/5,14:00:00,0,0,0.196,0,,0,0,7.2,0
2003/1/5,14:15:00,0,0,0.246,0,,0,0,9,0
2003/1/5,14:30:00,0,0,0.215,0,,0,0,7.9,0
2003/1/5,14:45:00,0,0,0.198,0,,0,0,7.2,0
2003/1/5,15:00:00,0,0,0.259,0,,0,0,9.5,0
2003/1/5,15:15:00,0,0,0.197,0,,0,0,7.3,0
2003/1/5,15:30:00,0,0,0.259,0,,0,0,9.5,0
2003/1/5,15:45:00,0,0,0.2,0,,0,0,7.3,0
2003/1/5,16:00:00,0,0,0.2,0,,0,0,7.4,0
2003/1/5,16:15:00,0,0,0.228,0,,0,0,8.4,0
2003/1/5,16:30:00,0.012,0,0.234,0,,0.4,0,8.6,0
2003/1/5,16:45:00,0,0,0.198,0,,0,0,7.2,0
2003/1/5,17:00:00,0,0,0.206,0,,0,0,7.5,0
2003/1/5,17:15:00,0,0,0.253,0,,0,0,9.3,0
2003/1/5,17:30:00,0,0,0.199,0,,0,0,7.3,0
2003/1/5,17:45:00,1.295,0,0.2,0,,47.5,0,7.3,0
2003/1/5,18:00:00,0.191,0,0.2,0,,7,0,7.4,0
2003/1/5,18:15:00,0.467,0,0.256,0,,17.1,0,9.4,0
2003/1/5,18:30:00,0.577,0,0.205,0,,21.1,0,7.5,0
2003/1/5,18:45:00,0.072,0,0.199,0,,2.6,0,7.3,0
2003/1/5,19:00:00,0,0,0.202,0,,0,0,7.5,0
2003/1/5,19:15:00,0.026,0,0.235,0,,1,0,8.6,0
2003/1/5,19:30:00,0.085,0,0.225,0,,3.1,0,8.2,0
2003/1/5,19:45:00,0.397,0,0.199,0,,14.5,0,7.3,0
2003/1/5,20:00:00,0.405,0,0.198,0,,14.9,0,7.2,0
2003/1/5,20:15:00,0.143,0,0.198,0,,5.2,0,7.2,0
2003/1/5,20:30:00,0,0,0.212,0,,0,0,7.8,0
2003/1/5,20:45:00,0,0,0.249,0,,0,0,9.2,0
2003/1/5,21:00:00,0,0,0.197,0,,0,0,7.3,0
2003/1/5,21:15:00,0.04,0,0.198,0,,1.5,0,7.3,0
2003/1/5,21:30:00,0,0,0.228,0,,0,0,8.4,0
2003/1/5,21:45:00,0.476,0,0.238,0,,17.5,0,8.7,0
2003/1/5,22:00:00,0.418,0,0.198,0,,15.4,0,7.3,0
2003/1/5,22:15:00,0.402,0,0.199,0,,14.8,0,7.3,0
2003/1/5,22:30:00,0.111,0,0.263,0,,4.1,0,9.6,0
2003/1/5,22:45:00,0,0,0.084,0,,0,0,3.1,0
2003/1/5,23:00:00,0,0,0,0,,0,0,0,0
2003/1/5,23:15:00,0,0,0,0,,0,0,0,0
2003/1/5,23:30:00,0,0,0,0,,0,0,0,0
2003/1/5,23:45:00,0,0,0,0,,0,0,0,0
2003/1/6,0:00:00,0,0,0,0,,0,0,0,0
2003/1/6,0:15:00,0,0,0,0,,0,0,0,0
2003/1/6,0:30:00,0,0,0,0,,0,0,0,0
2003/1/6,0:45:00,0,0,0.06,0,,0,0,2.2,0
2003/1/6,1:00:00,0,0,0,0,,0,0,0,0
2003/1/6,1:15:00,0,0,0.059,0,,0,0,2.2,0
2003/1/6,1:30:00,0,0,0,0,,0,0,0,0
2003/1/6,1:45:00,0,0,0.059,0,,0,0,2.2,0
2003/1/6,2:00:00,0,0,0,0,,0,0,0,0
2003/1/6,2:15:00,0,0,0.058,0,,0,0,2.1,0
2003/1/6,2:30:00,0,0,0.06,0,,0,0,2.2,0
2003/1/6,2:45:00,0,0,0,0,,0,0,0,0
2003/1/6,3:00:00,0,0,0.06,0,,0,0,2.2,0
2003/1/6,3:15:00,0,0,0,0,,0,0,0,0
2003/1/6,3:30:00,0,0,0.06,0,,0,0,2.2,0
2003/1/6,3:45:00,0,0,0.057,0,,0,0,2.1,0
2003/1/6,4:00:00,0,0,0.006,0,,0,0,0.2,0
2003/1/6,4:15:00,0,0,0.054,0,,0,0,2,0
2003/1/6,4:30:00,0,0,0.06,0,,0,0,2.2,0
2003/1/6,4:45:00,0,0,0.06,0,,0,0,2.2,0
2003/1/6,5:00:00,0,0,0,0,,0,0,0,0
2003/1/6,5:15:00,0,0,0.062,0,,0,0,2.3,0
2003/1/6,5:30:00,0,0,0.06,0,,0,0,2.2,0
2003/1/6,5:45:00,0,0,0.197,0,,0,0,7.2,0
2003/1/6,6:00:00,0,0,0.636,0,,0,0,23.3,0
2003/1/6,6:15:00,0,0,0.413,0,,0,0,15.2,0
2003/1/6,6:30:00,0,0,0.34,0,,0,0,12.6,0
2003/1/6,6:45:00,0,0,0.323,0,,0,0,11.9,0
2003/1/6,7:00:00,0,0,0.353,0,,0,0,12.9,0
2003/1/6,7:15:00,0,0,0.349,0,,0,0,12.8,0
2003/1/6,7:30:00,0.087,0,0.32,0,,3.2,0,11.7,0
2003/1/6,7:45:00,0.013,0,0.298,0,,0.5,0,10.9,0
2003/1/6,8:00:00,0.015,0,0.292,0,,0.6,0,10.6,0
2003/1/6,8:15:00,0.013,0,0.281,0,,0.5,0,10.3,0
2003/1/6,8:30:00,0,0,0.271,0,,0,0,10,0
2003/1/6,8:45:00,0,0,0.338,0,,0,0,12.4,0
2003/1/6,9:00:00,0,0,0.067,0,,0,0,2.5,0
2003/1/6,9:15:00,0,0,0.062,0,,0,0,2.3,0
2003/1/6,9:30:00,0,0,0.125,0,,0,0,4.6,0
2003/1/6,9:45:00,0.014,0,0.127,0,,0.5,0,4.6,0
2003/1/6,10:00:00,0,0,0.127,0,,0,0,4.6,0
2003/1/6,10:15:00,0,0,0.126,0,,0,0,4.6,0
2003/1/6,10:30:00,0,0,0.187,0,,0,0,6.9,0
2003/1/6,10:45:00,0,0,0.127,0,,0,0,4.7,0
2003/1/6,11:00:00,0,0,0.127,0,,0,0,4.7,0
2003/1/6,11:15:00,0,0,0.166,0,,0,0,6.1,0
2003/1/6,11:30:00,0.045,0,0.149,0,,1.7,0,5.4,0
2003/1/6,11:45:00,0.126,0,0.417,0,,4.6,0,15.3,0
2003/1/6,12:00:00,0,0,0.253,0,,0,0,9.3,0
2003/1/6,12:15:00,0,0,0.274,0,,0,0,10,0
2003/1/6,12:30:00,0.133,0,0.249,0,,4.8,0,9,0
2003/1/6,12:45:00,0.001,0,0.255,0,,0,0,9.4,0
2003/1/6,13:00:00,0.163,0,0.259,0,,6,0,9.5,0
2003/1/6,13:15:00,0,0,0.261,0,,0,0,9.6,0
2003/1/6,13:30:00,0,0,0.253,0,,0,0,9.2,0
2003/1/6,13:45:00,0,0,0.219,0,,0,0,8,0
2003/1/6,14:00:00,0,0,0.239,0,,0,0,8.8,0
2003/1/6,14:15:00,0,0,0.259,0,,0,0,9.6,0
2003/1/6,14:30:00,0.042,0,0.262,0,,1.5,0,9.5,0
2003/1/6,14:45:00,0.233,0,0.258,0,,8.5,0,9.4,0
2003/1/6,15:00:00,0,0,0.208,0,,0,0,7.6,0
2003/1/6,15:15:00,0,0,0.252,0,,0,0,9.2,0
2003/1/6,15:30:00,0,0,0.268,0,,0,0,9.8,0
2003/1/6,15:45:00,0,0,0.203,0,,0,0,7.5,0
2003/1/6,16:00:00,0,0,0.256,0,,0,0,9.4,0
2003/1/6,16:15:00,0,0,0.261,0,,0,0,9.6,0
2003/1/6,16:30:00,0,0,0.22,0,,0,0,8.1,0
2003/1/6,16:45:00,0,0,0.247,0,,0,0,9,0
2003/1/6,17:00:00,0,0,0.226,0,,0,0,8.3,0
2003/1/6,17:15:00,0,0,0.229,0,,0,0,8.4,0
2003/1/6,17:30:00,0,0,0.254,0,,0,0,9.3,0
2003/1/6,17:45:00,0,0,0.209,0,,0,0,7.7,0
2003/1/6,18:00:00,0,0,0.278,0,,0,0,10.2,0
2003/1/6,18:15:00,0,0,0.206,0,,0,0,7.6,0
2003/1/6,18:30:00,0,0,0.224,0,,0,0,8.2,0
2003/1/6,18:45:00,0,0,0.256,0,,0,0,9.4,0
2003/1/6,19:00:00,0,0,0.21,0,,0,0,7.7,0
2003/1/6,19:15:00,0,0,0.208,0,,0,0,7.7,0
2003/1/6,19:30:00,0,0,0.208,0,,0,0,7.6,0
2003/1/6,19:45:00,0,0,0.207,0,,0,0,7.6,0
2003/1/6,20:00:00,0,0,0.253,0,,0,0,9.3,0
2003/1/6,20:15:00,0,0,0.237,0,,0,0,8.7,0
2003/1/6,20:30:00,0.184,0,0.26,0,,6.8,0,9.6,0
2003/1/6,20:45:00,0.131,0,0.239,0,,4.8,0,8.8,0
2003/1/6,21:00:00,0,0,0.241,0,,0,0,8.9,0
2003/1/6,21:15:00,0,0,0.21,0,,0,0,7.8,0
2003/1/6,21:30:00,0.072,0,0.246,0,,2.6,0,9,0
2003/1/6,21:45:00,0,0,0.244,0,,0,0,8.9,0
2003/1/6,22:00:00,0,0,0.212,0,,0,0,7.8,0
2003/1/6,22:15:00,0,0,0.275,0,,0,0,10.1,0
2003/1/6,22:30:00,0.013,0,0.212,0,,0.5,0,7.7,0
2003/1/6,22:45:00,0,0,0.213,0,,0,0,7.7,0
2003/1/6,23:00:00,0,0,0.272,0,,0,0,10,0
2003/1/6,23:15:00,0,0,0.21,0,,0,0,7.7,0
2003/1/6,23:30:00,0,0,0.14,0,,0,0,5.2,0
2003/1/6,23:45:00,0,0,0,0,,0,0,0,0
2003/1/7,0:00:00,0,0,0,0,,0,0,0,0
2003/1/7,0:15:00,0,0,0,0,,0,0,0,0
2003/1/7,0:30:00,0,0,0,0,,0,0,0,0
2003/1/7,0:45:00,0,0,0,0,,0,0,0,0